Weather History for KFRG - September, 2013

Change the Weather History Date:

Tuesday, September 3, 2013

  Actual Average Record
Temperature  
Mean Temperature 75 °F -  
Max Temperature 82 °F 76 °F 84 °F (1996)
Min Temperature 69 °F 62 °F 54 °F (2001)
Cooling Degree Days 10    
Growing Degree Days 25 (Base 50)    
Moisture  
Dew Point 66 °F    
Average Humidity 78    
Maximum Humidity 97    
Minimum Humidity 45    
Precipitation  
Precipitation 0.15 in - - ()
Sea Level Pressure  
Sea Level Pressure 29.78 in    
Wind  
Wind Speed 4 mph (NNW)    
Max Wind Speed 12 mph    
Max Gust Speed 17 mph    
Visibility 8 miles    
Events Rain , Thunderstorm    
Averages and records for this station are not official NWS values.
T = Trace of Precipitation, MM = Missing Value Source: NWS Daily Summary

Daily Weather History Graph

Daily Weather History Graph

Search for Another Location

Airport or City:

Trip Planner

Search our weather history database for the weather conditions in past years. The results will help you decide how hot, cold, wet, or windy it might be!

Date:

Astronomy

Sep. 03, 2013 Rise Set
Actual Time 6:22 AM EDT 7:22 PM EDT
Civil Twilight 5:54 AM EDT 7:50 PM EDT
Nautical Twilight 5:21 AM EDT 8:23 PM EDT
Astronomical Twilight 4:46 AM EDT 8:58 PM EDT
Moon 4:33 AM EDT (9/3) 6:08 PM EDT (9/3)
Length of Visible Light 13h 55m
Length of Day
12h 59m
Waning Crescent, 3% of the Moon is Illuminated
Sep 3
Waning Crescent
Sep 5
New
Sep 12
First Quarter
Sep 19
Full
Sep 26
Last Quarter

Hourly Weather History & Observations

Time (EDT) Temp. Heat Index Dew Point Humidity Pressure Visibility Wind Dir Wind Speed Gust Speed Precip Events Conditions
12:53 AM 70.0 °F - 68.0 °F 93% 29.76 in 10.0 mi ENE 3.5 mph - N/A   Clear
1:53 AM 70.0 °F - 69.1 °F 97% 29.76 in 8.0 mi NNE 6.9 mph - N/A   Mostly Cloudy
2:01 AM 71.6 °F - 69.8 °F 94% 29.76 in 9.0 mi NNE 5.8 mph - N/A   Mostly Cloudy
2:28 AM 71.6 °F - 69.8 °F 94% 29.75 in 9.0 mi ENE 4.6 mph - N/A   Overcast
2:53 AM 71.1 °F - 69.1 °F 93% 29.74 in 9.0 mi SSE 3.5 mph - N/A   Mostly Cloudy
3:53 AM 70.0 °F - 69.1 °F 97% 29.72 in 7.0 mi ESE 3.5 mph - N/A   Clear
4:18 AM 71.6 °F - 69.8 °F 94% 29.73 in 7.0 mi Calm Calm - N/A   Partly Cloudy
4:46 AM 71.6 °F - 69.8 °F 94% 29.73 in 6.0 mi SSE 6.9 mph - 0.01 in   Mostly Cloudy
4:53 AM 71.1 °F - 70.0 °F 96% 29.73 in 5.0 mi SSE 6.9 mph - 0.01 in   Mostly Cloudy
5:53 AM 72.0 °F - 71.1 °F 97% 29.73 in 4.0 mi South 6.9 mph - N/A   Overcast
6:53 AM 73.0 °F - 72.0 °F 96% 29.75 in 3.0 mi SSW 4.6 mph - N/A   Overcast
7:24 AM 73.4 °F - 71.6 °F 94% 29.76 in 4.0 mi SSW 5.8 mph - N/A Thunderstorm Overcast
7:53 AM 71.1 °F - 62.1 °F 73% 29.77 in 3.0 mi SSW 6.9 mph - 0.01 in Thunderstorm Unknown
8:00 AM 69.8 °F - 64.4 °F 83% 29.77 in 0.8 mi NNW 3.5 mph - 0.12 in Rain , Thunderstorm Heavy Thunderstorms and Rain
8:10 AM 69.8 °F - 64.4 °F 83% 29.77 in 3.0 mi Calm Calm - 0.13 in Rain , Thunderstorm Light Thunderstorms and Rain
8:53 AM 70.0 °F - 66.9 °F 90% 29.78 in 10.0 mi Calm Calm - 0.13 in Thunderstorm Mostly Cloudy
9:01 AM 71.6 °F - 68.0 °F 88% 29.78 in 10.0 mi NNE 3.5 mph - N/A   Mostly Cloudy
9:08 AM 71.6 °F - 68.0 °F 88% 29.78 in 8.0 mi Calm Calm - N/A   Mostly Cloudy
9:27 AM 73.4 °F - 68.0 °F 83% 29.78 in 10.0 mi Calm Calm - N/A   Overcast
9:53 AM 73.9 °F - 69.1 °F 85% 29.78 in 10.0 mi Calm Calm - N/A   Overcast
10:01 AM 73.4 °F - 68.0 °F 83% 29.78 in 10.0 mi Calm Calm - N/A   Overcast
10:13 AM 73.4 °F - 69.8 °F 88% 29.78 in 10.0 mi Calm Calm - N/A Thunderstorm Thunderstorm
10:24 AM 73.4 °F - 69.8 °F 88% 29.78 in 10.0 mi Calm Calm - N/A Thunderstorm Thunderstorm
10:43 AM 77.0 °F - 69.8 °F 78% 29.78 in 10.0 mi Calm Calm - N/A   Mostly Cloudy
10:51 AM 75.2 °F - 69.8 °F 83% 29.78 in 10.0 mi Calm Calm - N/A   Scattered Clouds
10:53 AM 77.0 °F - 70.0 °F 79% 29.78 in 10.0 mi Variable 3.5 mph - N/A   Scattered Clouds
11:14 AM 77.0 °F - 69.8 °F 78% 29.77 in 9.0 mi Calm Calm - N/A   Mostly Cloudy
11:38 AM 75.2 °F - 71.6 °F 89% 29.77 in 7.0 mi Variable 3.5 mph - N/A   Overcast
11:53 AM 75.9 °F - 71.1 °F 85% 29.77 in 6.0 mi WNW 5.8 mph - N/A   Haze
12:09 PM 75.2 °F - 69.8 °F 83% 29.77 in 6.0 mi WNW 3.5 mph - N/A   Haze
12:53 PM 78.1 °F - 70.0 °F 76% 29.77 in 10.0 mi NNW 11.5 mph - N/A   Mostly Cloudy
1:12 PM 78.8 °F - 68.0 °F 69% 29.77 in 10.0 mi NW 6.9 mph - N/A   Scattered Clouds
1:53 PM 80.1 °F 81.9 °F 64.9 °F 60% 29.78 in 10.0 mi WNW 8.1 mph - N/A   Mostly Cloudy
2:53 PM 81.0 °F 81.9 °F 62.1 °F 52% 29.76 in 10.0 mi WNW 10.4 mph 17.3 mph N/A   Clear
3:53 PM 81.0 °F 81.6 °F 60.1 °F 49% 29.76 in 10.0 mi NNW 6.9 mph 16.1 mph N/A   Clear
4:53 PM 80.1 °F 80.7 °F 59.0 °F 48% 29.77 in 10.0 mi NW 6.9 mph - N/A   Clear
5:08 PM 80.6 °F 80.8 °F 57.2 °F 45% 29.77 in 10.0 mi NNW 4.6 mph - N/A   Partly Cloudy
5:53 PM 80.1 °F 80.6 °F 57.9 °F 47% 29.77 in 10.0 mi WNW 10.4 mph - N/A   Scattered Clouds
6:53 PM 78.1 °F - 57.0 °F 48% 29.79 in 10.0 mi NW 8.1 mph - N/A   Partly Cloudy
7:53 PM 75.0 °F - 55.9 °F 51% 29.82 in 10.0 mi NNW 5.8 mph - N/A   Clear
8:53 PM 73.9 °F - 55.0 °F 52% 29.84 in 10.0 mi NNW 5.8 mph - N/A   Partly Cloudy
9:53 PM 72.0 °F - 55.9 °F 57% 29.87 in 10.0 mi North 5.8 mph - N/A   Partly Cloudy
10:53 PM 70.0 °F - 55.9 °F 61% 29.88 in 10.0 mi NNW 6.9 mph - N/A   Clear
11:53 PM 69.1 °F - 55.9 °F 63% 29.88 in 10.0 mi NW 5.8 mph - N/A   Clear